This demonstration page uses our WeatherBlox Daily Observations layout. Learn more.

Left ArrowRight Arrow

41.86663, -103.66717

Hourly Observations for January 9, 2021

Temp ( °F °C ) Dew Point ( °F °C ) Humidity (%) Winds ( mph kmh ) Pressure ( in mb ) Visibility ( mi km ) Precip ( " mm )
12:35 am 00:35 Cloudy 31 -0.6 26 -3.3 82 82 E 5 7 30.31 1026 10 16 0.00 0.00
12:53 am 00:53 Cloudy 31 -0.6 26 -3.3 82 82 E 6 9 30.24 1024 10 16 0.00 0.00
1:53 am 01:53 Cloudy 30 -1.1 26 -3.3 85 85 SE 3 6 30.24 1024 10 16 0.00 0.00
2:53 am 02:53 Cloudy 30 -1.1 26 -3.3 85 85 Calm 30.27 1025 10 16 0.00 0.00
3:53 am 03:53 Cloudy 30 -1.1 26 -3.3 85 85 Calm 30.28 1025 10 16 0.00 0.00
4:53 am 04:53 Cloudy 30 -1.1 26 -3.3 85 85 Calm 30.29 1026 10 16 0.00 0.00
5:12 am 05:12 Cloudy 29 -1.7 25 -3.9 85 85 Calm 30.36 1028 10 16 0.00 0.00
5:20 am 05:20 Cloudy 29 -1.7 26 -3.3 89 89 E 3 6 30.37 1028 10 16 0.00 0.00
5:53 am 05:53 Cloudy 30 -1.1 26 -3.3 85 85 E 3 6 30.31 1027 8 13 0.00 0.00
6:00 am 06:00 Cloudy 30 -1.1 26 -3.3 85 85 Calm 30.36 1028 8 13 0.00 0.00
6:53 am 06:53 Cloudy with Light Snow 29 -1.7 26 -3.3 89 89 Calm 30.32 1027 6 10 0.00 0.00
7:30 am 07:30 Cloudy 29 -1.7 26 -3.3 89 89 SSE 3 6 30.39 1029 7 11 0.00 0.00
7:53 am 07:53 Cloudy with Mist and Fog 29 -1.7 26 -3.3 89 89 S 3 6 30.34 1027 5 8 0.00 0.00
8:13 am 08:13 Cloudy with Mist and Fog 29 -1.7 27 -2.8 92 92 Calm 30.41 1030 5 8 0.00 0.00
8:28 am 08:28 Cloudy with Mist and Fog 30 -1.1 26 -3.3 85 85 Calm 30.40 1029 4 6 0.00 0.00
8:53 am 08:53 Cloudy with Mist and Fog 30 -1.1 27 -2.8 88 88 SSW 3 6 30.36 1028 5 8 0.00 0.00
9:06 am 09:06 Cloudy with Mist and Fog 30 -1.1 27 -2.8 88 88 Calm 30.41 1030 4 6 0.00 0.00
9:53 am 09:53 Cloudy 31 -0.6 27 -2.8 85 85 Calm 30.38 1029 8 13 0.00 0.00
10:05 am 10:05 Cloudy 32 0 27 -2.8 82 82 Calm 30.41 1030 9 14 0.00 0.00
10:53 am 10:53 Cloudy 33 0.6 27 -2.8 78 78 Calm 30.37 1028 9 14 0.00 0.00
11:00 am 11:00 Cloudy 33 0.6 27 -2.8 78 78 Calm 30.39 1029 8 13 0.00 0.00
11:53 am 11:53 Cloudy with Haze 34 1.1 28 -2.2 79 79 NNW 6 9 30.34 1028 3 5 0.00 0.00
12:01 pm 12:01 Cloudy with Light Snow 34 1.1 28 -2.2 79 79 NNW 6 9 30.36 1028 3 4 0.00 0.00
12:09 pm 12:09 Cloudy with Haze 33 0.6 28 -2.2 82 82 NNW 6 9 30.37 1029 5 8 0.00 0.00
12:53 pm 12:53 Cloudy 35 1.7 28 -2.2 76 76 NNE 3 6 30.33 1027 10 16 0.00 0.00
1:48 pm 13:48 Cloudy 36 2 28 -2 75 75 Calm 30.34 1027 10 16 0.00 0.00
1:53 pm 13:53 Cloudy 36 2.2 28 -2.2 73 73 Calm 30.33 1027 10 16 0.00 0.00
2:53 pm 14:53 Cloudy 36 2.2 26 -3.3 67 67 NNE 6 9 30.34 1028 10 16 0.00 0.00
3:53 pm 15:53 Cloudy 34 1.1 26 -3.3 73 73 NNE 7 11 30.37 1028 10 16 0.00 0.00
4:53 pm 16:53 Cloudy 34 1.1 26 -3.3 73 73 NNE 5 7 30.38 1029 10 16 0.00 0.00
5:53 pm 17:53 Cloudy 33 0.6 27 -2.8 78 78 NE 6 9 30.40 1029 10 16 0.00 0.00
6:53 pm 18:53 Cloudy with Light Snow 32 0 27 -2.8 82 82 NNE 3 6 30.40 1030 5 8 0.00 0.00
7:53 pm 19:53 Cloudy with Light Snow 32 0 27 -2.8 82 82 Calm 30.41 1030 4 6 0.01 0.25
8:53 pm 20:53 Cloudy with Light Snow 31 -0.6 27 -2.8 85 85 Calm 30.41 1030 7 11 0.01 0.25
9:53 pm 21:53 Cloudy with Light Snow 31 -0.6 27 -2.8 85 85 Calm 30.41 1030 7 11 0.00 0.00
10:24 pm 22:24 Cloudy 31 -0.6 27 -2.8 85 85 Calm 30.45 1031 7 11 0.00 0.00
10:35 pm 22:35 Cloudy with Light Snow 30 -1.1 27 -2.8 88 88 Calm 30.47 1032 7 11 0.00 0.00
10:44 pm 22:44 Cloudy with Light Snow 30 -1.1 27 -2.8 88 88 Calm 30.47 1032 6 10 0.00 0.00
10:53 pm 22:53 Cloudy with Light Snow 30 -1.1 27 -2.8 88 88 ESE 3 6 30.42 1030 7 11 0.00 0.00
11:53 pm 23:53 Cloudy 30 -1.1 26 -3.3 85 85 ESE 3 6 30.41 1030 10 16 0.00 0.00

Powered by AerisWeather